Location: Powder Track
(41.8531°N, 72.3584°W)
Time: 23:14:33
(UTC+00:00)

Vanguard 2 Rocket - Pass Details

Date: 05 August 2021
Orbit: 555 x 3324 km, 32.9° (Epoch: 18 September)

Event Time Altitude Azimuth Distance (km) Brightness Sun altitude
Rises 10:24:40 0° 229° (SW) 3,741 9.5 5.6°
Reaches altitude 10° 10:28:28 10° 212° (SSW) 2,396 8.7 6.3°
Maximum altitude 10:32:02 18° 169° (S) 1,615 8.2 6.9°
Drops below altitude 10° 10:35:00 10° 124° (SE) 1,920 9.3 7.5°
Sets 10:37:36 0° 104° (ESE) 2,734 10.6 7.9°
